Wind_Speed
11 7 7 9 12 15 17 17 18 16 10 10 10 10 12 12 10 14 9 6 7 9 11 13 14 14 15 16 16 18 18 17 17 17 18 20 19 19 20 20 21 22 23 21 22 25 27 27 27 29 29 29 29 28 29 31 31 30 29 31 31 30 27 28 29 30 32 34 35 34 32 31 31 31 32 33 34 34 34 33 32 30 29 28 30 30
7 7 9 12 14 14 16 17 18 16 10 9 10 10 11 11 11 13 8 7 4 5 9 11 13 15 15 16 17 17 17 17 19 19 21 22 21 20 20 22 22 21 21 20 22 25 28 31 30 29 29 29 30 29 29 30 32 32 31 33 34 34 34 33 32 32 33 34 36 36 34 32 31 30 31 32 34 35 34 34 34 32 31 31 31 31
2 6 7 7 11 15 16 19 19 16 12 10 9 8 8 9 9 8 4 6 5 3 8 11 13 14 14 16 18 19 18 18 21 23 23 24 22 21 21 21 21 20 20 21 21 22 26 29 30 30 29 28 29 29 30 30 30 31 33 34 35 36 38 38 36 35 35 34 35 37 36 34 32 31 31 31 32 34 35 36 35 35 34 34 33 32
3 5 3 3 6 13 16 18 19 15 11 8 8 9 9 9 10 8 5 7 7 5 8 10 10 11 12 15 18 20 23 22 23 25 26 25 23 23 24 23 22 22 23 22 22 23 24 23 26 31 29 25 25 26 28 30 31 31 32 33 35 36 38 39 38 36 34 33 34 36 37 35 33 32 31 31 32 33 36 37 37 37 37 36 36 34
6 1 4 3 5 5 11 12 14 12 9 8 9 10 10 11 12 9 3 4 6 8 9 8 9 10 11 15 16 17 22 23 25 27 27 27 25 24 25 25 24 26 28 27 26 27 26 23 25 29 29 28 26 26 26 28 30 32 32 32 33 34 36 38 37 35 33 33 34 36 37 37 35 32 33 34 34 34 35 38 39 39 39 38 38 37
10 5 7 4 5 2 5 8 12 10 7 7 9 11 13 13 13 9 5 3 6 9 8 6 8 8 7 13 14 12 14 17 21 24 23 24 22 21 22 22 22 24 27 28 29 29 27 26 26 27 29 30 29 26 24 23 26 29 31 32 33 33 33 35 36 35 33 33 35 37 38 39 38 37 38 38 36 35 35 36 38 39 39 39 39 39
7 10 9 6 4 3 3 7 11 10 8 7 6 10 16 17 14 11 9 6 7 9 4 6 7 9 6 10 12 10 10 12 12 14 17 18 17 16 18 19 19 20 21 24 27 28 27 25 25 26 26 28 27 24 22 21 21 23 26 28 30 32 33 34 35 35 34 34 35 36 38 40 41 41 41 39 37 36 36 36 37 38 39 40 40 41
9 14 12 11 9 3 2 5 6 8 11 6 5 5 12 18 17 14 11 8 8 9 5 7 7 10 10 9 11 12 13 13 11 11 13 16 17 18 19 21 22 23 22 21 20 22 24 22 20 19 19 20 21 18 17 17 18 20 23 26 27 29 32 34 35 35 36 36 36 36 37 40 42 42 41 39 38 38 38 38 37 37 38 39 40 41
12 17 15 15 12 6 6 4 0 3 6 1 8 9 5 9 14 14 11 9 8 9 9 9 8 9 11 7 7 12 15 17 15 14 14 16 17 19 20 21 22 23 22 18 15 16 20 20 16 17 19 20 19 18 18 19 19 19 21 25 27 28 30 32 34 36 37 37 37 37 37 39 41 42 41 40 40 40 40 40 40 39 39 39 39 40
6 14 17 15 10 8 9 5 4 2 1 2 4 6 7 6 7 8 8 8 8 8 10 12 10 10 11 6 6 9 12 15 14 13 12 12 15 18 18 18 18 19 18 14 14 16 18 19 19 22 24 23 22 23 24 23 21 20 21 23 25 28 30 32 33 35 37 38 38 38 38 40 41 41 41 41 40 41 41 41 41 41 41 40 39 40
5 9 14 11 7 9 8 6 6 5 5 4 4 4 5 5 3 3 4 5 6 8 12 15 14 12 11 7 5 8 9 9 9 8 6 9 14 16 16 16 16 17 15 13 16 20 21 23 26 26 23 21 21 21 21 21 21 22 22 22 23 25 28 31 33 34 34 36 39 40 40 40 40 41 42 42 42 42 43 42 42 41 41 41 41 41
7 9 9 5 6 11 9 5 4 6 6 4 3 2 2 3 1 1 2 4 6 8 10 15 16 15 14 7 3 6 7 6 6 6 5 8 12 13 15 17 16 15 14 15 20 25 26 27 27 25 23 22 20 20 19 20 20 20 20 22 24 24 25 28 32 33 34 34 37 40 41 41 41 41 42 43 43 43 44 44 43 42 42 41 41 42
7 9 9 6 8 13 11 6 4 4 5 4 4 4 1 2 3 3 4 4 6 5 3 7 13 13 14 13 10 11 10 8 8 9 11 13 14 17 20 19 15 14 14 15 21 25 25 25 25 24 24 22 20 20 20 18 17 17 17 19 23 26 25 26 29 32 34 35 36 37 39 41 42 43 44 45 45 45 46 47 46 46 45 43 42 42
5 7 11 8 7 12 12 9 7 7 9 10 9 9 6 4 4 5 6 3 5 7 4 5 9 7 8 12 15 18 18 19 20 18 18 19 20 22 21 17 14 16 18 20 22 24 23 22 22 22 21 20 19 18 17 16 15 16 17 17 19 23 25 25 27 29 33 35 36 35 36 37 39 41 43 44 46 47 48 48 49 49 48 46 45 43
7 5 10 11 9 14 14 12 8 4 7 10 8 7 6 5 4 3 3 2 3 5 5 6 6 6 6 3 2 6 12 20 24 21 20 21 20 20 17 14 15 17 20 21 22 21 19 20 20 20 20 19 19 18 15 14 14 17 19 18 18 20 24 26 27 29 31 34 35 35 34 34 33 34 37 40 43 45 47 48 49 50 49 48 47 46
8 4 11 15 13 18 18 15 10 5 4 5 4 5 7 6 3 1 1 1 1 3 2 5 4 4 6 4 1 1 2 7 12 13 15 17 17 16 14 13 14 17 19 20 19 18 16 19 21 22 21 20 20 19 16 15 17 19 20 20 20 20 22 26 28 29 31 32 32 32 32 31 30 30 33 36 38 41 44 45 46 48 49 49 48 47
9 6 14 16 12 18 20 17 15 8 4 4 5 7 4 1 3 1 2 1 1 3 3 4 4 5 8 10 11 11 8 7 8 11 15 17 14 13 13 13 15 17 18 18 17 15 18 21 22 22 23 22 22 20 17 19 22 23 22 21 21 21 21 23 27 30 31 32 34 34 34 34 34 33 34 35 35 36 39 41 43 44 46 48 48 47
8 5 13 17 13 19 22 19 17 8 2 4 6 6 4 5 3 1 3 2 2 4 3 3 7 8 8 7 6 9 13 13 12 13 16 15 11 11 12 13 13 15 16 16 16 17 21 23 21 21 23 24 25 22 20 22 25 25 24 23 22 22 20 19 21 25 27 31 35 38 40 40 39 36 34 32 32 33 35 37 39 41 42 44 45 45
7 3 8 15 14 16 17 15 13 7 1 1 3 6 5 1 2 4 3 3 4 5 3 4 8 8 9 8 4 3 7 9 11 12 12 10 9 9 9 10 11 12 12 14 19 22 23 21 20 21 22 24 25 24 24 27 27 24 22 22 22 22 21 20 20 22 25 27 30 33 35 37 35 33 31 29 29 31 33 34 36 38 40 40 41 42
8 4 5 11 12 13 12 9 10 9 4 1 1 4 3 1 1 4 4 1 2 4 4 4 6 6 8 11 11 12 11 11 12 10 9 9 8 7 8 9 9 8 10 17 23 23 21 20 20 21 23 24 24 25 27 28 26 23 21 21 21 22 23 23 25 27 28 27 26 26 26 27 27 28 29 29 30 31 32 33 35 37 38 38 39 40
7 5 3 7 11 10 8 9 12 13 10 7 6 7 6 3 1 1 2 2 2 4 4 4 6 7 7 8 11 14 15 14 12 10 8 8 7 7 8 8 8 9 12 18 21 20 20 20 19 22 24 23 24 26 27 27 25 23 25 26 24 22 22 24 28 30 30 28 26 25 24 24 25 27 30 31 32 32 33 33 34 36 37 38 37 38
6 5 5 6 8 8 7 10 12 13 13 11 9 9 9 7 4 3 5 5 3 4 5 5 6 8 7 6 8 9 8 8 8 8 7 7 7 8 8 10 12 12 12 15 18 19 19 19 20 23 24 23 24 25 26 27 28 26 26 28 28 27 26 25 27 28 28 27 27 27 27 27 29 30 32 33 32 32 32 32 32 33 35 36 36 36
3 5 7 6 7 7 5 5 3 5 11 12 9 9 9 7 6 7 6 5 5 5 5 4 6 10 8 7 9 9 8 9 9 7 6 8 10 11 12 13 12 10 12 15 18 19 19 20 23 25 24 24 25 25 28 32 31 28 28 29 30 30 29 29 28 27 27 26 26 28 28 29 30 31 31 32 32 31 31 30 30 31 33 34 34 35
2 6 8 7 6 4 3 4 4 5 3 9 9 9 11 10 10 8 3 1 3 6 6 5 7 10 8 6 10 12 11 11 9 7 8 11 14 15 13 11 10 10 14 17 18 19 20 23 27 26 26 24 23 27 33 35 32 29 29 30 31 31 30 31 30 29 28 27 27 27 28 29 28 29 29 30 31 31 30 29 29 30 31 33 33 34
6 7 8 8 7 5 2 3 2 1 3 6 8 12 14 15 14 10 3 1 2 6 8 7 8 9 6 3 7 11 8 8 9 9 11 13 16 16 13 10 9 11 14 17 18 19 22 26 27 26 25 22 24 32 36 33 30 29 29 31 32 32 32 31 31 30 29 28 28 27 27 27 27 27 28 29 29 29 28 28 28 28 29 30 31 33
7 7 8 9 10 9 8 7 7 6 6 7 9 14 17 19 18 10 4 4 5 7 8 7 6 8 11 10 12 12 9 11 13 13 12 12 14 16 14 13 11 11 14 17 19 22 26 30 29 27 23 21 27 36 36 31 30 30 30 32 33 33 32 31 31 30 30 28 28 27 26 25 26 27 27 27 27 27 27 27 27 27 28 28 29 31
4 5 8 10 9 9 8 6 7 7 8 9 12 15 16 18 18 11 5 5 6 7 8 8 7 11 17 19 19 17 13 13 15 15 15 15 15 15 13 12 11 11 13 16 19 24 28 31 31 27 23 24 33 37 33 32 31 31 33 35 36 35 33 31 31 30 30 30 28 27 27 26 26 27 27 28 28 27 27 27 27 27 28 28 29 30
3 6 10 11 11 11 7 4 8 8 10 11 12 15 15 15 16 13 8 6 6 6 7 8 9 12 19 22 22 20 15 12 14 17 19 19 19 19 17 16 16 17 18 19 22 25 28 30 29 27 27 31 35 34 33 34 34 34 38 40 41 40 35 32 32 31 30 30 28 25 27 27 27 28 28 29 29 29 29 28 28 28 28 29 30 30
3 6 10 10 11 12 10 4 8 6 8 8 9 12 13 15 15 13 12 11 10 9 7 7 10 12 19 23 21 19 18 16 19 23 24 23 22 22 23 24 26 26 24 23 25 25 26 28 28 29 32 34 33 34 37 39 39 40 42 43 43 42 38 34 33 32 30 29 28 25 24 26 28 28 29 30 30 31 31 30 29 29 28 28 28 29
2 6 9 10 10 12 13 10 5 5 6 8 10 10 10 11 13 13 13 14 15 15 13 14 16 17 18 21 22 24 25 25 27 31 32 28 24 21 23 25 25 25 23 24 25 24 25 26 27 28 31 31 30 34 40 42 42 42 42 42 42 41 38 35 33 33 32 30 29 28 26 26 26 27 28 29 30 31 32 32 31 30 28 27 26 27
3 6 7 7 9 10 11 13 12 11 10 10 11 11 9 10 11 11 12 13 14 16 17 19 19 17 16 19 25 31 31 26 26 32 34 30 25 22 24 25 24 23 24 24 24 24 25 26 26 28 29 30 31 34 40 43 43 42 42 42 41 39 36 34 33 33 33 32 31 30 30 29 28 27 27 27 28 30 31 32 32 31 29 27 25 25
4 4 3 4 7 8 8 10 12 11 11 12 11 10 11 11 11 12 13 14 14 14 15 16 15 14 13 16 22 29 28 22 22 28 31 30 28 27 28 30 28 23 20 20 21 24 25 25 27 29 30 31 33 36 39 41 42 43 44 42 39 37 36 35 34 34 35 34 33 32 32 31 30 29 27 25 26 27 29 30 32 33 32 28 25 24
7 6 4 5 6 7 8 9 8 7 8 10 10 12 16 16 17 17 15 15 16 14 12 12 12 12 12 13 15 21 25 23 23 26 27 28 30 32 33 35 33 24 20 20 21 23 25 27 30 30 31 35 37 37 36 37 40 44 44 41 38 36 35 35 35 34 35 35 34 33 33 33 32 30 28 26 25 25 27 28 29 32 33 31 28 25
8 7 6 6 5 7 5 4 5 8 9 7 8 14 18 18 18 18 16 17 18 16 13 13 13 13 13 13 14 19 25 29 31 34 33 30 30 32 35 38 34 29 28 28 27 26 27 28 29 29 31 35 35 33 34 36 38 38 37 36 37 36 36 36 36 35 34 34 33 33 33 33 33 32 30 28 26 26 26 26 27 29 31 32 30 27
7 7 5 5 5 5 3 5 5 8 7 7 9 11 14 16 17 19 19 21 21 19 18 18 17 17 17 19 23 28 33 40 44 42 38 34 32 33 35 37 36 35 36 34 31 31 30 28 28 29 29 30 31 32 33 33 33 32 33 34 35 36 36 36 37 37 36 35 33 32 32 33 34 33 31 30 29 29 28 26 26 26 28 30 31 29
7 7 5 5 6 5 5 6 7 4 2 7 11 10 11 13 15 16 17 19 19 18 17 18 18 20 21 27 33 35 38 42 41 38 39 38 35 33 34 35 36 36 35 34 32 30 29 27 27 27 26 26 27 28 28 27 29 31 33 33 33 33 33 33 35 36 36 36 34 32 31 32 33 34 33 32 32 31 30 29 27 26 26 28 31 31
5 7 5 5 7 6 7 8 7 4 6 9 12 13 14 13 12 11 11 12 14 16 17 18 20 22 24 29 34 34 34 31 25 29 37 30 17 16 22 28 31 28 25 27 28 27 25 23 22 22 22 22 22 21 23 26 29 31 31 29 26 26 26 26 28 30 31 32 32 31 31 31 32 34 34 34 34 34 32 31 32 31 29 29 30 32
4 6 5 6 6 5 6 8 7 6 8 11 11 10 12 13 12 10 9 8 11 17 21 20 20 22 21 24 29 29 25 17 11 19 24 12 8 4 8 12 17 17 15 17 20 22 22 21 20 20 20 19 17 17 19 22 25 26 26 23 21 21 21 22 22 24 25 26 27 27 29 30 32 34 35 35 36 36 35 34 34 35 34 33 32 32
2 4 5 6 7 8 8 8 8 7 10 12 7 4 7 12 13 9 6 8 13 21 25 22 18 20 19 20 23 20 14 10 10 13 11 11 10 6 3 2 7 10 10 11 12 14 18 20 22 21 18 15 14 13 15 17 19 20 21 21 21 21 21 21 22 23 23 24 24 24 25 27 30 32 34 34 35 36 35 35 36 36 37 37 35 34
2 5 7 8 10 11 9 8 7 6 11 13 5 6 7 9 9 6 6 10 11 12 14 14 14 16 20 22 22 16 10 9 9 8 9 10 9 7 4 3 5 4 6 9 9 9 11 14 16 16 13 12 12 13 15 17 18 18 18 19 20 20 21 21 22 23 23 24 24 24 24 25 27 29 31 33 34 34 35 36 36 37 38 39 39 37
4 7 8 9 11 11 11 11 7 5 12 15 4 9 11 8 6 8 10 8 5 4 2 3 6 9 13 16 13 9 6 6 6 7 9 9 10 9 7 5 6 6 4 5 6 8 9 9 10 11 11 12 13 15 16 17 18 18 17 17 18 19 20 21 22 23 23 24 24 24 24 24 25 27 28 30 32 34 35 36 37 37 38 39 40 40
6 7 8 9 10 10 9 9 6 7 16 14 7 17 16 8 5 9 5 6 8 6 5 4 1 2 3 3 3 4 6 8 8 9 10 11 14 13 11 10 10 9 8 7 8 10 12 13 13 13 13 14 15 17 18 19 19 19 18 18 18 19 19 20 22 23 24 25 25 25 25 25 25 25 26 27 29 32 34 36 37 38 39 39 39 40
7 7 9 10 8 7 9 8 7 8 7 9 17 15 11 8 3 2 5 8 6 5 6 7 6 6 5 5 6 6 9 12 12 13 14 16 18 18 16 16 17 16 15 15 14 15 17 18 19 18 17 17 17 18 19 21 22 21 20 20 19 19 19 20 20 21 22 24 25 26 26 26 26 25 25 26 27 29 32 34 35 37 39 40 40 40
8 8 8 9 7 7 8 9 9 9 3 12 12 6 7 11 8 6 6 3 4 7 6 6 6 6 6 6 9 10 12 16 17 17 18 20 22 21 19 18 18 19 19 19 19 19 20 22 22 22 21 20 18 19 20 22 23 24 24 23 22 21 21 20 20 20 20 21 23 24 25 26 27 27 27 27 27 28 30 32 34 35 37 39 40 40
12 11 5 4 8 8 7 8 10 11 8 3 2 1 3 8 8 5 4 2 3 5 5 5 5 5 7 10 14 15 16 19 19 19 21 23 24 21 18 16 17 19 20 20 20 21 21 22 24 24 25 24 21 20 20 22 24 25 25 25 25 25 24 23 23 22 21 20 20 22 24 25 26 27 28 28 28 29 29 31 32 33 34 35 38 40
11 12 4 1 6 8 9 13 14 12 10 7 5 4 3 3 3 4 5 4 3 1 2 3 2 3 8 15 18 18 19 20 20 20 20 21 21 20 19 21 23 23 23 22 21 22 22 23 24 24 25 26 24 21 21 22 23 25 26 26 26 27 28 27 26 25 24 23 22 22 22 23 24 25 26 28 29 29 29 30 31 32 32 33 34 37
7 12 6 3 7 7 7 10 11 13 14 11 7 5 4 5 5 6 6 5 4 2 1 0 1 4 11 17 18 18 18 17 17 19 19 20 22 24 26 29 29 27 25 23 21 22 22 24 24 23 24 25 24 22 23 23 23 24 26 27 27 27 29 29 28 28 27 27 27 26 25 24 22 21 22 24 26 28 29 29 30 31 32 32 32 33
8 12 8 7 10 9 5 1 1 5 11 11 8 5 3 2 2 0 2 3 2 3 2 2 6 10 13 15 14 14 15 14 16 20 22 23 27 29 30 31 29 28 26 24 22 22 22 23 24 24 25 25 24 24 24 24 24 24 26 27 27 28 29 30 29 30 29 29 29 29 29 28 26 23 21 21 22 25 27 29 29 29 30 31 31 32
10 12 9 7 8 9 9 5 2 1 4 6 7 6 4 5 7 9 8 6 3 2 4 7 10 10 10 12 12 12 14 17 19 21 22 25 28 30 30 29 28 27 27 26 24 23 22 23 24 26 28 29 28 27 27 26 25 25 26 27 28 29 30 31 31 31 31 31 31 31 31 31 30 28 25 24 22 23 24 25 27 29 30 30 29 31
9 8 7 6 7 8 10 9 7 6 5 2 6 8 9 10 9 6 4 2 1 4 5 7 9 11 12 14 15 15 17 20 21 21 21 23 26 28 28 28 28 28 27 27 26 25 25 25 26 29 31 31 31 31 31 30 29 28 28 29 29 30 32 32 33 33 33 33 33 33 33 34 34 33 31 29 27 26 25 25 25 27 29 30 30 30
9 8 7 8 9 7 5 7 9 9 4 6 13 12 8 4 2 2 3 2 1 3 7 11 14 16 17 17 16 16 18 20 21 22 23 24 25 27 27 27 27 29 29 28 28 29 29 29 30 30 32 32 33 33 33 33 32 31 30 31 31 31 32 33 34 35 35 35 36 36 35 36 36 35 34 33 31 30 29 28 27 27 28 30 30 31
Wind_Direction
169 184 192 204 199 197 199 205 219 223 226 240 220 204 219 226 230 230 216 153 189 225 225 230 243 245 252 259 258 259 257 254 255 256 256 255 255 256 257 258 257 257 259 261 259 262 268 269 269 271 271 270 268 266 264 260 257 256 251 248 248 251 258 262 262 257 253 252 251 251 249 249 250 249 245 242 241 243 245 248 249 250 251 251 249 244
177 200 204 209 213 202 199 207 220 229 238 247 227 213 222 225 234 236 206 139 164 243 241 240 250 250 253 261 263 261 258 257 256 257 256 256 259 260 260 260 260 262 263 263 261 263 273 279 279 274 269 266 265 264 264 261 258 256 254 253 252 253 258 263 265 261 256 254 253 252 253 253 253 254 252 248 244 243 244 245 247 249 251 252 251 248
230 234 225 228 231 213 207 211 215 223 228 236 236 226 228 225 232 234 171 141 170 238 257 259 262 259 256 260 263 259 256 255 253 254 255 256 261 263 261 261 262 266 266 263 261 262 271 279 282 281 277 272 267 265 263 262 260 258 256 256 256 256 258 263 265 260 257 258 256 254 254 255 255 257 257 255 250 246 244 244 245 245 247 250 251 250
250 256 231 334 282 224 216 215 213 217 217 226 230 222 228 226 233 232 181 177 202 231 261 274 276 266 262 263 264 258 254 253 250 250 252 252 257 259 259 262 263 264 264 264 263 263 267 268 272 281 286 284 279 273 266 261 259 259 258 258 258 259 261 264 263 259 257 258 257 254 252 254 255 256 257 256 253 248 245 244 243 243 244 246 248 250
218 236 111 54 349 241 218 209 208 214 210 219 225 227 235 231 235 246 216 186 219 237 246 268 280 266 251 251 256 255 247 243 240 242 246 247 251 255 257 259 261 262 264 264 265 268 269 265 266 276 285 288 287 283 276 267 261 259 261 261 262 261 261 262 262 259 256 254 253 251 248 248 249 250 250 251 251 247 244 244 243 243 243 244 246 249
210 171 122 110 23 354 229 203 199 206 210 220 223 231 244 248 243 234 221 225 253 252 221 217 267 269 243 243 250 252 245 240 235 233 237 245 252 252 254 257 257 261 267 271 273 274 273 272 274 278 281 286 287 287 286 279 267 262 264 264 263 261 259 259 260 258 255 252 250 248 246 244 245 248 250 251 252 251 249 248 247 246 245 244 245 247
188 165 146 135 89 39 272 226 205 206 224 230 228 230 235 250 256 237 228 231 254 271 214 177 257 281 267 251 254 259 260 252 236 226 230 239 246 247 250 257 259 260 264 268 274 276 277 280 284 288 287 286 287 287 285 282 275 269 267 266 263 260 257 256 256 256 255 252 249 247 246 246 248 251 254 257 257 257 255 254 252 251 249 248 247 247
148 162 165 159 149 128 244 243 222 213 222 228 0 320 237 238 247 240 238 237 246 271 249 189 237 277 274 258 258 261 264 261 242 226 230 234 242 250 254 258 263 264 261 261 264 270 281 289 292 298 301 293 290 289 285 284 283 277 271 268 264 259 256 254 253 253 253 252 250 248 246 246 249 252 255 258 259 258 258 257 256 254 252 251 251 250
151 171 174 165 161 167 192 201 199 211 218 236 13 352 296 256 252 242 238 245 250 261 255 225 218 259 269 258 250 246 248 254 248 238 242 242 245 253 256 258 261 265 268 267 258 261 282 291 290 301 307 302 295 290 291 295 293 285 276 270 265 260 257 254 252 251 251 252 252 251 248 246 248 251 253 255 257 258 258 258 258 257 255 254 253 252
145 176 174 167 168 181 185 162 132 149 155 68 30 4 355 333 284 254 236 239 247 246 247 236 220 246 270 261 234 232 233 245 249 244 244 239 241 249 254 258 263 269 275 271 259 268 283 287 291 301 306 305 299 292 290 293 291 289 283 274 268 262 258 257 255 254 252 250 251 251 250 248 247 249 251 252 254 256 256 257 257 257 257 256 255 254
96 157 166 172 184 181 173 149 143 141 135 119 72 35 354 347 329 299 249 224 236 241 239 233 223 236 265 264 229 235 233 238 246 234 219 222 234 247 256 261 266 272 278 273 272 284 291 294 300 306 310 312 308 299 294 293 292 292 286 274 267 264 261 259 257 256 255 251 249 249 250 250 250 249 250 251 251 253 255 256 256 257 258 258 257 257
123 148 161 169 163 153 140 126 125 117 136 141 92 82 352 331 317 339 235 208 220 234 236 230 223 229 249 253 226 245 236 224 233 227 236 245 242 253 263 265 269 275 280 279 282 290 296 300 306 310 314 318 316 311 307 301 294 291 287 274 261 258 261 261 258 257 257 254 252 250 249 249 251 251 250 251 252 252 254 256 257 257 258 258 258 258
151 169 171 146 146 154 145 136 145 146 169 177 153 156 170 260 240 217 200 207 223 240 257 216 209 221 247 254 249 251 245 237 241 243 260 267 264 266 266 267 274 278 278 279 285 293 300 306 311 314 318 321 321 319 314 306 293 285 290 282 263 254 255 259 258 257 257 256 255 253 251 249 250 251 252 252 253 253 254 256 257 257 257 258 258 259
159 187 179 157 157 171 161 157 178 195 195 193 189 185 184 204 240 235 216 214 229 244 266 221 203 210 250 263 251 241 239 242 245 249 259 265 264 265 266 271 276 275 278 283 290 301 309 315 318 320 323 327 328 324 314 305 295 286 290 290 274 259 256 261 262 260 259 257 256 255 254 253 252 253 255 256 256 256 256 256 256 257 257 257 258 260
172 193 178 175 172 173 182 192 188 171 186 197 198 194 198 204 223 243 229 233 260 255 238 213 201 193 212 255 279 235 234 237 242 248 252 255 256 259 264 269 270 275 281 286 296 309 319 326 328 327 330 335 336 333 323 309 300 291 286 286 282 268 258 259 263 264 261 259 257 255 255 255 256 258 260 260 260 258 258 257 256 257 257 257 257 259
188 195 170 179 176 171 187 199 180 132 169 186 163 193 223 218 199 305 326 152 333 318 246 209 208 210 233 268 347 99 128 213 233 238 238 242 247 253 260 260 264 277 283 288 302 314 327 334 333 329 332 341 343 341 339 331 321 310 296 284 281 277 265 259 259 261 261 260 258 255 253 254 259 266 268 267 266 263 260 258 258 258 259 258 258 258
188 183 165 172 177 178 185 188 180 176 178 163 163 193 215 127 122 209 265 134 124 273 260 237 240 245 266 279 260 238 225 211 220 231 241 247 245 246 255 256 263 278 284 292 305 315 328 333 332 330 333 341 346 345 345 344 337 328 316 299 287 283 279 270 264 263 262 262 259 256 255 257 264 272 276 275 273 269 264 260 259 259 260 260 259 258
183 160 158 170 179 182 182 181 186 194 156 159 184 172 104 56 76 157 246 221 201 247 264 249 250 248 250 269 264 235 228 225 227 236 248 255 245 238 243 248 266 284 289 297 309 318 327 332 333 333 336 341 346 348 347 344 337 329 321 309 297 290 288 285 280 275 273 271 267 264 261 262 267 273 277 277 275 273 268 263 261 262 262 262 262 261
184 136 157 182 184 171 171 177 189 199 129 98 177 150 131 154 175 161 205 231 223 245 260 230 239 245 239 247 274 258 235 236 237 237 243 247 237 227 232 249 271 282 289 307 319 323 328 335 338 338 337 338 342 346 346 343 338 330 321 310 299 291 287 289 291 289 288 284 278 273 269 266 266 268 272 275 275 273 270 267 264 264 263 263 263 263
188 177 167 192 183 158 161 183 195 193 176 113 167 166 173 259 185 171 191 197 217 237 254 247 237 232 235 246 255 259 261 261 257 249 244 245 243 245 261 270 273 277 298 315 319 322 331 341 342 339 336 335 339 343 343 343 343 344 341 330 313 296 285 283 285 288 289 286 280 274 270 266 264 266 271 274 274 272 271 269 267 265 264 264 262 263
182 200 184 177 170 158 167 195 197 193 185 182 189 187 193 198 144 208 205 173 202 223 228 251 254 242 237 247 253 254 257 259 261 260 252 253 264 277 279 276 282 293 304 313 318 326 337 344 343 336 335 334 334 340 345 348 352 356 357 352 341 324 303 288 283 284 285 282 274 265 263 267 271 273 275 276 274 273 272 271 270 268 266 265 263 263
180 197 174 153 167 180 191 197 202 203 194 191 197 194 192 188 172 203 211 191 199 218 212 229 260 258 243 249 266 263 260 266 269 264 259 266 282 291 285 280 286 293 303 316 325 331 336 340 337 331 330 328 328 337 346 346 347 349 349 348 346 342 332 317 303 294 291 284 272 263 264 271 276 278 278 277 276 275 275 275 275 272 270 267 266 264
178 189 175 160 178 187 166 158 188 224 210 208 215 209 204 197 188 206 214 191 187 211 225 244 267 267 253 246 264 269 271 280 280 271 270 284 292 293 290 287 286 296 315 326 329 328 329 330 328 322 319 318 322 332 338 337 337 337 334 334 336 338 339 335 326 313 302 292 279 271 270 273 276 277 278 278 277 277 277 277 277 274 271 270 268 265
157 189 184 169 169 155 98 98 52 16 244 221 222 218 214 205 201 215 228 151 194 205 211 222 244 263 262 238 253 263 267 274 279 279 278 286 292 289 284 284 287 301 317 325 326 322 321 324 322 314 310 314 320 328 330 329 330 330 328 327 329 331 333 335 333 324 309 296 287 281 277 276 276 275 275 275 276 277 277 277 276 275 273 271 269 266
183 188 185 176 175 174 166 185 182 31 231 223 217 216 218 213 211 219 225 290 245 207 207 220 230 254 263 225 245 257 261 272 277 276 271 273 281 280 272 272 281 299 313 320 323 319 318 322 319 309 307 313 322 325 325 324 325 326 325 325 326 326 326 328 331 329 318 302 290 285 281 279 278 276 274 275 276 276 277 276 275 275 274 273 271 266
195 192 185 191 194 194 198 206 205 198 202 213 219 218 219 218 215 216 214 221 227 206 207 223 236 265 280 280 271 265 266 280 282 280 270 262 267 270 269 273 282 299 311 315 317 314 315 318 313 304 303 309 318 321 321 319 320 321 324 327 327 324 322 322 324 326 323 311 294 285 284 282 279 279 278 276 276 276 275 275 274 275 274 274 273 268
190 200 198 209 214 210 212 203 183 186 190 194 210 217 220 222 219 219 222 219 227 227 226 231 244 273 282 280 277 275 275 283 287 287 282 279 280 276 273 278 287 302 312 313 310 308 311 312 307 299 297 301 310 315 315 316 317 317 320 325 327 324 318 316 316 318 321 319 303 287 284 286 285 284 282 280 278 277 275 274 274 275 275 274 274 272
158 201 203 214 226 229 232 175 147 181 205 199 203 211 216 220 218 219 226 229 239 245 241 236 239 259 270 271 274 280 285 289 288 288 289 290 293 290 286 288 294 300 302 301 300 299 301 304 300 295 295 300 306 311 312 314 315 315 316 319 322 321 315 309 309 309 313 319 315 300 288 287 288 288 287 285 282 278 276 274 274 275 275 275 277 277
178 204 202 207 221 233 238 193 133 164 217 215 212 217 218 219 219 221 229 232 237 242 247 251 246 250 261 267 271 279 287 291 288 289 289 287 287 288 286 285 288 292 291 288 289 289 291 294 292 291 296 299 303 308 310 311 312 313 314 315 316 315 310 305 303 303 305 310 316 315 304 296 293 292 291 289 285 281 277 274 273 273 274 276 280 282
214 202 205 211 222 234 238 231 197 192 222 228 230 232 229 230 232 235 237 235 235 238 242 247 247 246 255 268 277 279 281 286 288 287 284 281 282 283 280 279 281 283 283 282 282 281 285 289 288 291 296 297 298 304 308 310 310 311 311 311 310 308 305 302 299 298 298 300 305 312 313 311 307 303 298 293 287 284 279 275 272 271 271 274 279 283
232 200 195 206 226 239 241 244 242 236 236 240 241 242 246 250 251 248 246 241 237 239 241 243 249 252 254 264 272 276 278 281 283 283 283 286 290 287 283 284 280 275 276 279 280 282 286 288 288 291 293 292 294 298 304 307 307 307 307 307 305 303 301 299 296 293 292 295 297 301 305 309 310 310 308 302 293 287 283 280 276 273 271 270 275 280
207 201 148 172 227 240 230 233 239 240 244 247 246 245 243 243 243 238 236 236 237 244 247 245 248 253 252 254 267 277 281 276 271 275 282 289 292 289 289 290 286 281 279 276 278 283 285 285 288 290 290 291 293 295 299 301 299 300 303 302 300 299 298 297 296 292 290 292 295 296 297 300 301 303 307 306 300 293 288 285 282 277 273 269 271 277
184 191 163 167 216 238 228 225 228 228 238 242 233 230 230 231 234 236 237 238 240 244 247 244 243 247 254 261 268 277 280 277 275 276 280 286 289 291 292 290 291 298 298 288 285 285 285 284 286 288 289 293 295 294 292 290 291 296 299 297 296 297 297 297 297 295 293 294 296 296 296 295 294 294 296 299 300 297 293 291 288 283 278 274 271 272
179 193 196 182 209 241 226 190 208 224 233 237 221 217 224 229 234 239 243 242 240 239 241 248 254 259 266 270 268 270 273 276 277 276 277 281 286 288 288 288 294 302 299 295 293 291 289 288 288 289 291 294 294 289 285 287 291 295 295 294 296 297 298 298 298 299 298 297 299 299 298 296 293 289 287 286 287 289 290 291 289 286 282 278 273 272
175 188 201 194 214 237 175 139 209 231 225 234 240 233 233 237 239 242 244 243 242 244 248 253 260 263 264 262 260 261 264 267 271 274 276 279 279 281 285 289 293 292 290 291 292 292 292 293 292 290 289 288 287 287 289 292 295 297 297 296 298 299 300 300 299 299 300 299 299 299 299 298 295 291 288 282 278 276 278 280 282 281 279 276 272 271
176 184 198 204 209 225 212 199 223 253 279 255 252 244 235 233 232 236 243 245 244 248 252 253 255 256 254 253 252 253 258 265 272 277 279 279 278 278 279 281 282 282 284 288 290 292 294 295 293 291 288 287 289 290 294 297 298 299 300 300 300 300 301 299 298 299 300 299 299 298 297 296 293 292 291 288 282 277 274 274 276 277 277 274 271 270
186 184 190 205 205 218 232 227 234 287 297 265 245 231 222 219 218 224 240 250 245 243 245 244 245 246 246 249 251 254 260 268 277 279 280 285 290 279 271 271 273 278 282 283 283 286 290 292 291 291 291 292 293 293 295 296 296 296 296 298 301 302 303 303 302 303 304 304 303 301 297 293 289 287 287 287 286 283 280 276 274 274 277 276 272 271
215 194 189 206 206 208 230 242 243 246 250 245 235 222 209 204 207 216 232 253 251 242 239 238 240 244 245 250 255 259 265 270 271 274 284 321 29 328 267 259 264 272 277 276 273 273 278 286 290 292 294 294 294 292 289 288 288 288 290 297 303 305 307 309 310 311 313 314 312 308 302 295 290 286 283 281 282 283 283 281 275 273 273 274 272 270
249 215 207 213 214 215 225 236 233 233 248 249 229 139 152 185 197 205 230 252 251 244 240 237 241 247 249 254 259 260 263 261 256 269 303 6 20 348 323 249 258 265 269 275 277 272 272 279 284 287 292 294 295 295 290 286 286 288 293 301 307 309 311 312 312 314 315 317 318 317 312 305 298 292 287 282 279 278 278 277 276 273 272 272 272 270
228 212 211 214 223 226 226 233 240 243 253 252 220 124 152 175 174 187 231 244 249 251 246 241 245 251 253 256 257 254 254 260 266 293 331 353 358 7 20 329 309 299 266 267 284 290 282 279 281 285 291 296 300 303 300 295 293 296 303 308 310 315 318 317 315 315 314 315 317 319 320 317 309 302 296 290 285 280 275 271 270 269 269 269 270 269
198 207 208 212 224 226 223 236 248 247 254 259 236 141 153 147 156 208 230 251 287 352 18 229 241 257 261 263 262 262 283 314 334 338 334 333 346 1 1 341 345 349 318 296 305 310 307 306 306 306 310 314 314 313 309 303 300 303 310 315 316 318 319 318 317 317 317 317 318 319 321 321 317 312 306 298 291 286 281 275 270 267 265 265 266 267
188 198 208 216 224 223 224 235 245 264 265 258 161 138 149 158 208 222 237 331 340 2 47 81 109 307 309 326 349 351 349 355 350 335 330 330 335 338 337 331 332 333 333 336 336 330 326 324 320 317 317 320 319 315 312 309 307 308 312 317 320 319 316 315 315 315 316 318 320 322 323 322 321 318 314 307 298 290 286 282 277 272 268 265 266 266
178 182 204 214 213 212 220 218 223 257 254 150 137 145 165 183 222 316 355 351 0 30 44 53 49 37 45 45 27 12 2 355 347 338 333 329 327 329 326 321 322 326 326 322 323 326 324 320 317 315 313 317 319 315 312 309 307 309 313 317 319 316 313 313 312 312 314 315 318 320 323 325 325 323 319 315 307 298 291 286 282 278 274 270 268 268
179 184 203 208 194 194 209 204 212 245 212 127 140 177 192 202 237 308 323 315 70 68 47 36 30 31 49 36 10 359 351 347 345 340 336 330 326 326 326 321 321 324 324 321 321 321 317 313 312 310 308 311 315 314 310 307 306 306 311 316 316 313 311 310 309 309 312 315 317 319 321 325 329 330 328 323 316 308 299 290 284 281 279 275 272 270
190 192 192 195 191 192 213 221 224 245 264 243 229 311 145 194 236 284 295 259 111 87 55 32 17 23 30 8 355 349 341 339 337 330 327 325 321 323 327 325 324 324 323 320 319 318 315 310 308 307 306 307 310 309 306 305 307 307 310 313 313 312 312 311 310 309 310 313 318 320 321 323 328 333 334 330 324 317 310 301 291 284 282 281 278 276
198 194 181 180 202 209 243 253 249 251 264 275 274 260 222 227 280 320 305 272 233 246 352 3 337 1 359 345 340 338 333 331 329 323 321 320 318 321 324 321 321 322 320 318 317 315 312 308 306 305 303 302 305 306 303 303 308 311 311 311 311 309 310 312 314 313 312 313 317 319 319 320 323 329 334 334 330 324 318 311 304 295 289 285 283 282
206 199 199 206 203 207 238 250 250 251 254 258 261 240 226 254 285 298 286 266 265 292 345 63 275 323 331 326 324 324 322 323 325 323 322 318 314 313 314 315 317 318 317 319 319 315 312 308 306 306 303 301 304 307 304 303 307 310 310 311 310 307 306 309 312 313 315 317 318 318 318 317 318 323 328 331 331 328 324 319 313 306 300 293 288 286
182 184 196 215 214 220 237 222 140 251 247 246 245 228 199 238 262 109 149 173 134 101 95 9 330 320 317 314 313 314 314 317 319 316 313 310 307 307 309 312 315 316 317 318 318 316 312 307 306 308 306 304 306 307 306 305 306 308 309 311 311 308 305 305 307 309 312 317 319 319 318 317 317 319 320 321 323 325 326 324 320 314 307 302 297 293
144 164 189 210 215 228 240 228 165 263 256 239 236 236 213 173 143 117 117 129 104 30 309 309 312 305 304 308 309 308 305 303 303 302 301 300 301 303 308 311 312 314 315 316 316 315 311 307 306 308 307 307 308 309 308 308 310 312 313 313 312 310 307 306 305 306 308 312 316 318 318 317 317 318 317 315 314 314 318 321 322 319 314 308 304 300
144 175 190 191 204 228 241 231 213 235 262 197 144 142 137 140 136 115 110 133 329 306 292 301 307 305 309 311 308 302 298 296 297 296 294 294 297 301 306 309 310 311 312 312 312 310 307 306 307 306 304 306 309 310 310 311 313 315 317 316 314 312 309 308 307 306 307 308 311 315 317 317 316 316 316 315 314 312 312 313 316 319 319 314 308 303
195 214 207 208 224 239 246 225 211 225 243 118 124 130 124 107 64 57 96 111 13 316 317 320 316 311 309 308 304 297 293 293 296 296 292 291 294 298 302 304 306 307 308 308 308 306 306 307 308 306 305 307 309 310 310 310 310 313 315 315 313 312 310 309 308 307 307 307 307 309 312 314 314 314 313 313 313 313 312 311 310 313 316 317 313 307
Height
1516 1520 1520 1516 1512 1512 1512 1513 1512 1510 1512 1514 1516 1520 1520 1520 1521 1515 1515 1519 1520 1522 1521 1518 1518 1516 1515 1512 1511 1513 1513 1513 1513 1514 1514 1514 1514 1515 1515 1515 1515 1515 1515 1516 1516 1516 1516 1517 1517 1517 1517 1517 1517 1518 1518 1517 1517 1518 1519 1519 1519 1520 1521 1521 1521 1521 1522 1522 1522 1523 1523 1523 1524 1525 1526 1526 1527 1529 1530 1532 1533 1533 1533 1534 1534 1535
1514 1516 1513 1509 1507 1508 1512 1512 1512 1512 1515 1516 1515 1516 1517 1519 1518 1511 1513 1519 1521 1524 1520 1516 1516 1514 1513 1512 1509 1511 1511 1510 1511 1510 1510 1510 1510 1511 1511 1511 1512 1512 1512 1513 1513 1512 1512 1512 1512 1513 1513 1513 1513 1513 1514 1513 1513 1514 1515 1515 1516 1517 1517 1516 1517 1517 1517 1518 1519 1519 1520 1521 1521 1522 1523 1523 1524 1525 1526 1528 1529 1529 1530 1530 1530 1531
1517 1515 1510 1508 1507 1507 1510 1509 1510 1513 1517 1519 1515 1514 1518 1518 1516 1514 1515 1518 1522 1526 1521 1516 1516 1512 1510 1510 1507 1508 1508 1508 1508 1507 1506 1507 1507 1508 1508 1508 1508 1509 1509 1509 1509 1509 1509 1508 1508 1508 1508 1508 1509 1509 1510 1510 1510 1510 1511 1511 1512 1513 1513 1513 1513 1514 1513 1514 1515 1516 1517 1518 1518 1519 1519 1520 1521 1522 1523 1523 1524 1525 1526 1526 1527 1527
1521 1515 1510 1510 1509 1507 1508 1507 1510 1512 1516 1519 1515 1515 1518 1516 1517 1519 1517 1518 1521 1523 1521 1518 1518 1513 1510 1508 1503 1504 1505 1504 1505 1504 1503 1504 1504 1504 1504 1505 1505 1506 1506 1506 1506 1506 1506 1506 1505 1504 1503 1504 1505 1505 1505 1506 1506 1506 1507 1507 1508 1509 1509 1509 1509 1510 1511 1512 1512 1513 1514 1515 1515 1516 1516 1516 1517 1518 1518 1519 1520 1521 1521 1522 1523 1524
1517 1512 1510 1512 1511 1509 1510 1510 1512 1515 1518 1518 1515 1515 1516 1515 1516 1517 1517 1520 1521 1521 1519 1521 1522 1512 1506 1506 1500 1498 1499 1499 1499 1500 1499 1499 1500 1501 1500 1501 1501 1501 1501 1502 1502 1502 1502 1503 1502 1501 1500 1500 1500 1501 1501 1501 1502 1502 1503 1504 1505 1505 1505 1505 1505 1507 1509 1509 1508 1509 1510 1511 1511 1512 1511 1511 1512 1513 1513 1514 1515 1516 1517 1518 1519 1520
1511 1510 1512 1513 1513 1513 1514 1513 1512 1515 1520 1520 1517 1515 1516 1515 1514 1515 1519 1524 1527 1523 1516 1522 1527 1511 1497 1498 1495 1492 1493 1492 1493 1494 1495 1496 1497 1498 1497 1496 1497 1497 1497 1497 1497 1498 1499 1499 1499 1499 1498 1497 1496 1497 1497 1497 1498 1498 1499 1500 1501 1501 1501 1501 1502 1503 1505 1505 1504 1505 1505 1505 1506 1506 1505 1506 1508 1509 1510 1510 1511 1512 1514 1515 1516 1516
1504 1507 1511 1513 1515 1516 1518 1517 1511 1513 1520 1522 1516 1514 1515 1516 1515 1516 1521 1527 1530 1525 1514 1518 1527 1514 1498 1494 1490 1489 1490 1488 1489 1490 1491 1494 1494 1494 1494 1493 1494 1494 1493 1493 1493 1494 1495 1495 1496 1495 1495 1494 1493 1493 1494 1494 1494 1494 1495 1496 1496 1497 1497 1498 1498 1499 1500 1500 1500 1500 1500 1501 1501 1501 1501 1503 1505 1506 1507 1508 1508 1509 1510 1511 1512 1513
1498 1506 1509 1510 1514 1518 1522 1521 1514 1513 1519 1520 1516 1515 1516 1517 1517 1517 1522 1526 1524 1521 1517 1516 1523 1521 1507 1496 1490 1489 1490 1488 1488 1489 1490 1491 1491 1491 1491 1490 1490 1490 1490 1491 1490 1490 1492 1492 1493 1492 1492 1491 1490 1490 1491 1491 1492 1492 1492 1492 1492 1492 1493 1493 1494 1495 1495 1496 1496 1497 1497 1497 1497 1497 1499 1500 1502 1503 1504 1504 1505 1506 1506 1507 1509 1509
1493 1500 1503 1504 1511 1517 1520 1520 1517 1516 1520 1522 1521 1521 1520 1520 1518 1517 1523 1526 1522 1525 1526 1515 1518 1524 1509 1493 1490 1489 1490 1489 1486 1487 1487 1487 1489 1488 1488 1488 1487 1487 1488 1488 1489 1488 1489 1490 1490 1490 1489 1489 1489 1488 1488 1489 1489 1489 1488 1488 1488 1488 1489 1489 1490 1490 1491 1492 1492 1493 1494 1493 1493 1494 1496 1497 1498 1499 1499 1500 1501 1502 1503 1504 1505 1506
1493 1494 1497 1501 1507 1512 1514 1516 1518 1519 1522 1523 1524 1526 1526 1525 1522 1521 1525 1528 1528 1533 1530 1514 1514 1521 1505 1488 1489 1490 1488 1487 1483 1482 1482 1483 1486 1485 1484 1485 1485 1485 1486 1486 1486 1486 1487 1487 1487 1487 1487 1486 1486 1486 1486 1485 1486 1486 1485 1485 1484 1485 1485 1485 1485 1486 1487 1488 1488 1489 1489 1489 1490 1491 1492 1493 1494 1494 1495 1496 1497 1498 1499 1500 1501 1502
1493 1493 1496 1499 1503 1506 1510 1515 1517 1520 1524 1524 1526 1529 1531 1531 1529 1528 1527 1529 1535 1534 1523 1511 1509 1516 1508 1489 1484 1485 1482 1482 1480 1479 1480 1481 1483 1483 1482 1483 1483 1483 1484 1483 1484 1484 1484 1484 1484 1485 1484 1484 1483 1482 1482 1482 1482 1482 1482 1481 1481 1481 1481 1481 1481 1482 1482 1483 1484 1484 1485 1485 1486 1487 1488 1489 1489 1490 1490 1491 1492 1493 1495 1496 1497 1498
1494 1497 1498 1498 1500 1503 1509 1516 1517 1520 1524 1525 1528 1532 1536 1536 1534 1534 1533 1532 1535 1526 1512 1506 1506 1514 1512 1491 1481 1480 1475 1477 1478 1477 1479 1479 1479 1480 1480 1481 1481 1482 1482 1481 1482 1481 1482 1482 1482 1482 1481 1481 1480 1479 1479 1479 1478 1478 1478 1477 1477 1477 1478 1477 1478 1478 1478 1479 1479 1480 1481 1481 1482 1483 1484 1484 1485 1486 1486 1487 1488 1489 1490 1492 1492 1493
1496 1496 1495 1498 1501 1501 1507 1517 1521 1523 1524 1526 1528 1533 1541 1542 1536 1533 1532 1528 1525 1516 1504 1500 1503 1511 1505 1484 1477 1479 1475 1476 1477 1476 1478 1477 1478 1478 1477 1478 1480 1480 1480 1480 1480 1480 1480 1480 1479 1479 1478 1478 1477 1476 1476 1475 1475 1474 1474 1473 1473 1473 1474 1474 1474 1474 1474 1474 1475 1475 1476 1477 1478 1479 1479 1479 1481 1482 1482 1483 1483 1484 1486 1487 1488 1488
1498 1498 1496 1499 1501 1501 1504 1511 1519 1520 1520 1522 1523 1528 1536 1538 1536 1530 1523 1521 1519 1511 1502 1498 1503 1510 1500 1479 1471 1472 1472 1474 1474 1475 1477 1476 1476 1476 1475 1477 1478 1478 1478 1478 1478 1478 1477 1477 1477 1476 1476 1475 1474 1474 1473 1472 1472 1471 1471 1470 1469 1470 1471 1471 1471 1471 1470 1470 1471 1471 1472 1473 1474 1475 1475 1475 1476 1477 1478 1478 1478 1479 1480 1482 1483 1484
1492 1495 1495 1496 1497 1499 1500 1503 1509 1511 1513 1516 1515 1520 1526 1525 1526 1525 1520 1522 1519 1508 1502 1501 1507 1509 1496 1477 1466 1464 1467 1469 1470 1473 1474 1473 1474 1474 1474 1476 1476 1476 1476 1476 1476 1476 1476 1475 1474 1474 1474 1473 1472 1471 1470 1470 1469 1468 1468 1467 1467 1467 1468 1468 1468 1468 1467 1467 1468 1468 1468 1469 1470 1471 1471 1471 1472 1472 1473 1473 1474 1474 1475 1476 1478 1479
1486 1486 1485 1488 1489 1492 1497 1499 1503 1508 1514 1516 1515 1521 1523 1516 1517 1523 1525 1527 1525 1521 1512 1505 1504 1497 1481 1469 1466 1466 1467 1468 1469 1471 1470 1471 1471 1472 1473 1473 1474 1474 1473 1473 1474 1474 1474 1474 1473 1472 1472 1472 1471 1469 1468 1468 1467 1466 1465 1465 1464 1464 1464 1464 1464 1464 1464 1464 1465 1465 1465 1465 1466 1467 1467 1467 1467 1467 1468 1469 1469 1470 1470 1471 1473 1474
1483 1481 1479 1485 1488 1489 1493 1496 1499 1505 1510 1513 1516 1519 1516 1511 1515 1524 1528 1527 1530 1532 1517 1502 1500 1492 1481 1472 1464 1465 1468 1467 1469 1468 1466 1467 1469 1470 1471 1471 1472 1472 1471 1472 1472 1472 1472 1472 1471 1471 1470 1470 1470 1468 1467 1466 1465 1464 1463 1462 1462 1462 1462 1462 1461 1461 1462 1461 1461 1461 1461 1462 1462 1463 1463 1463 1463 1463 1464 1464 1465 1465 1466 1467 1468 1470
1473 1478 1478 1481 1486 1487 1490 1495 1499 1501 1504 1509 1514 1513 1511 1514 1518 1524 1528 1526 1529 1529 1514 1502 1500 1495 1492 1481 1462 1458 1464 1464 1465 1465 1463 1464 1466 1468 1469 1469 1470 1469 1469 1470 1470 1471 1471 1470 1470 1469 1469 1469 1468 1467 1466 1465 1464 1463 1462 1460 1460 1459 1459 1459 1459 1459 1459 1458 1458 1458 1457 1458 1459 1459 1460 1459 1459 1459 1459 1460 1460 1461 1462 1462 1463 1465
1465 1478 1484 1479 1481 1487 1490 1496 1502 1503 1503 1506 1507 1506 1509 1517 1520 1524 1527 1523 1523 1523 1513 1504 1500 1494 1490 1479 1464 1461 1463 1462 1462 1462 1461 1463 1463 1465 1466 1467 1468 1467 1468 1469 1469 1469 1469 1469 1469 1468 1467 1467 1466 1466 1465 1464 1462 1461 1460 1459 1458 1457 1457 1457 1457 1456 1456 1455 1454 1454 1453 1454 1455 1456 1456 1456 1456 1456 1455 1455 1456 1456 1457 1458 1459 1460
1460 1471 1483 1481 1480 1486 1491 1495 1500 1502 1503 1505 1506 1505 1506 1510 1514 1516 1516 1514 1516 1518 1512 1505 1499 1491 1480 1469 1465 1465 1461 1460 1461 1459 1459 1461 1461 1463 1464 1465 1466 1467 1467 1468 1468 1468 1468 1468 1467 1466 1466 1466 1465 1464 1463 1462 1460 1458 1457 1456 1455 1455 1454 1454 1454 1452 1452 1452 1451 1451 1450 1451 1452 1452 1453 1453 1453 1452 1452 1452 1452 1452 1453 1454 1454 1455
1458 1462 1474 1482 1483 1487 1491 1490 1488 1490 1496 1502 1505 1506 1506 1507 1510 1511 1509 1509 1512 1513 1512 1509 1500 1484 1467 1460 1460 1460 1457 1457 1458 1457 1457 1459 1460 1462 1463 1464 1465 1466 1467 1467 1468 1468 1467 1467 1466 1466 1465 1464 1463 1463 1462 1460 1459 1457 1456 1455 1453 1453 1452 1451 1450 1449 1449 1448 1448 1448 1448 1449 1449 1449 1449 1449 1449 1449 1449 1449 1449 1449 1449 1449 1450 1451
1459 1461 1470 1483 1486 1486 1486 1482 1480 1482 1486 1491 1494 1496 1498 1501 1506 1510 1509 1507 1508 1506 1503 1503 1498 1477 1459 1456 1456 1454 1455 1455 1455 1456 1456 1458 1460 1461 1463 1464 1464 1465 1466 1467 1467 1467 1466 1466 1466 1465 1464 1463 1462 1461 1460 1459 1458 1456 1455 1454 1452 1451 1450 1449 1447 1446 1445 1445 1445 1445 1446 1447 1447 1446 1446 1446 1446 1446 1446 1446 1445 1446 1445 1445 1446 1447
1455 1457 1467 1479 1483 1482 1481 1481 1482 1483 1482 1485 1488 1488 1491 1496 1500 1503 1502 1500 1504 1503 1496 1498 1497 1474 1453 1454 1456 1453 1455 1455 1455 1457 1457 1458 1460 1460 1462 1462 1463 1464 1465 1465 1466 1466 1465 1465 1464 1464 1462 1461 1460 1458 1458 1457 1456 1455 1454 1453 1452 1450 1449 1447 1446 1444 1443 1442 1442 1443 1443 1444 1443 1443 1443 1442 1442 1442 1442 1442 1442 1442 1442 1441 1442 1443
1454 1456 1463 1473 1479 1482 1484 1483 1484 1486 1486 1488 1489 1486 1486 1490 1493 1493 1494 1495 1499 1500 1497 1501 1501 1475 1452 1453 1456 1453 1454 1455 1456 1458 1458 1459 1459 1459 1460 1461 1461 1463 1463 1463 1464 1464 1464 1464 1463 1462 1460 1459 1458 1456 1455 1454 1453 1453 1452 1451 1450 1449 1448 1446 1444 1443 1441 1440 1440 1440 1440 1440 1440 1440 1439 1439 1438 1438 1438 1438 1438 1438 1438 1438 1439 1439
1454 1455 1459 1469 1479 1486 1489 1488 1489 1490 1490 1488 1485 1482 1482 1484 1487 1490 1494 1498 1499 1496 1493 1497 1495 1473 1452 1452 1454 1452 1454 1455 1456 1458 1458 1458 1458 1457 1458 1459 1459 1460 1460 1461 1462 1462 1462 1462 1460 1459 1458 1457 1455 1454 1454 1452 1451 1450 1449 1449 1448 1446 1445 1444 1443 1441 1439 1438 1437 1437 1436 1436 1436 1436 1436 1436 1435 1435 1435 1435 1435 1435 1434 1434 1435 1435
1451 1452 1454 1462 1471 1478 1481 1480 1478 1479 1481 1481 1479 1479 1479 1480 1484 1489 1492 1498 1498 1491 1489 1492 1488 1471 1455 1452 1453 1453 1454 1455 1455 1457 1458 1457 1457 1456 1456 1457 1458 1458 1459 1459 1459 1459 1459 1459 1458 1457 1456 1454 1453 1453 1452 1450 1449 1448 1447 1446 1445 1444 1442 1441 1440 1438 1437 1435 1434 1434 1434 1433 1433 1433 1433 1433 1432 1432 1432 1432 1431 1431 1431 1431 1431 1431
1451 1452 1451 1454 1457 1459 1461 1462 1461 1463 1469 1475 1476 1477 1477 1477 1479 1485 1490 1492 1489 1486 1486 1485 1483 1476 1464 1455 1452 1451 1454 1456 1454 1454 1456 1456 1456 1456 1455 1455 1456 1456 1457 1458 1458 1457 1456 1455 1455 1454 1454 1453 1452 1451 1450 1448 1447 1445 1444 1443 1442 1441 1439 1438 1437 1435 1434 1433 1431 1431 1431 1431 1431 1430 1430 1430 1430 1429 1429 1428 1428 1428 1427 1427 1427 1427
1453 1454 1452 1453 1453 1450 1450 1454 1457 1459 1463 1468 1470 1472 1474 1474 1476 1483 1487 1485 1484 1487 1487 1479 1478 1480 1469 1455 1452 1450 1452 1455 1454 1453 1455 1456 1455 1455 1454 1454 1453 1454 1455 1456 1456 1455 1453 1452 1452 1451 1451 1451 1450 1449 1447 1445 1444 1443 1441 1440 1439 1437 1436 1434 1433 1432 1431 1430 1429 1428 1428 1428 1428 1427 1427 1427 1426 1426 1425 1425 1424 1424 1424 1424 1423 1423
1452 1454 1452 1453 1455 1452 1451 1454 1458 1460 1461 1462 1465 1467 1469 1471 1475 1480 1482 1482 1482 1487 1486 1478 1478 1480 1467 1453 1452 1452 1451 1453 1452 1451 1453 1454 1455 1456 1454 1452 1451 1451 1452 1452 1452 1452 1451 1450 1450 1449 1448 1448 1447 1446 1443 1442 1441 1440 1438 1437 1435 1434 1432 1431 1430 1429 1428 1427 1427 1426 1425 1425 1425 1424 1424 1423 1423 1423 1422 1421 1421 1420 1420 1420 1420 1419
1451 1452 1450 1453 1456 1455 1454 1456 1458 1461 1463 1463 1463 1464 1465 1467 1471 1474 1476 1477 1479 1480 1480 1476 1475 1474 1465 1455 1450 1450 1452 1452 1450 1449 1448 1449 1453 1454 1453 1451 1449 1448 1448 1448 1448 1448 1448 1447 1447 1447 1445 1444 1444 1442 1440 1439 1437 1436 1435 1433 1432 1431 1429 1428 1426 1425 1424 1424 1424 1423 1422 1421 1421 1420 1420 1420 1419 1419 1418 1418 1417 1417 1416 1416 1416 1416
1451 1450 1448 1452 1457 1457 1456 1456 1458 1460 1463 1465 1465 1464 1466 1468 1469 1472 1472 1471 1472 1472 1471 1471 1471 1467 1463 1457 1449 1446 1448 1451 1449 1445 1441 1443 1447 1449 1447 1446 1446 1445 1444 1444 1444 1444 1444 1444 1444 1443 1442 1441 1441 1440 1438 1436 1433 1431 1430 1429 1428 1427 1425 1424 1422 1421 1420 1420 1420 1420 1419 1418 1418 1417 1416 1415 1415 1415 1415 1414 1414 1414 1413 1413 1413 1413
1451 1451 1451 1455 1460 1459 1456 1457 1460 1460 1462 1466 1467 1467 1468 1469 1468 1467 1465 1463 1464 1466 1466 1467 1468 1462 1456 1455 1450 1444 1443 1445 1445 1442 1440 1440 1442 1443 1442 1440 1440 1441 1441 1441 1441 1440 1440 1440 1440 1440 1439 1438 1438 1437 1436 1433 1430 1427 1425 1424 1424 1423 1421 1420 1418 1417 1416 1416 1416 1416 1415 1414 1414 1413 1412 1412 1411 1411 1411 1411 1411 1411 1410 1410 1409 1409
1449 1451 1452 1457 1461 1457 1453 1456 1458 1462 1467 1468 1465 1463 1462 1461 1461 1459 1458 1458 1459 1461 1462 1461 1458 1453 1451 1452 1452 1446 1439 1437 1438 1439 1439 1439 1438 1438 1437 1435 1435 1438 1439 1438 1437 1437 1437 1436 1436 1436 1435 1435 1434 1433 1432 1430 1426 1424 1422 1420 1419 1418 1417 1416 1414 1413 1412 1412 1412 1411 1411 1410 1409 1408 1408 1408 1407 1407 1407 1407 1407 1407 1407 1407 1406 1406
1447 1448 1449 1452 1456 1455 1453 1455 1459 1466 1470 1462 1452 1451 1453 1453 1454 1456 1455 1454 1453 1452 1452 1451 1448 1449 1451 1452 1451 1447 1439 1433 1433 1434 1435 1437 1437 1435 1432 1431 1433 1435 1436 1435 1434 1433 1433 1432 1432 1432 1431 1431 1430 1428 1427 1425 1424 1422 1420 1418 1416 1415 1413 1412 1410 1409 1408 1408 1408 1407 1407 1406 1405 1404 1404 1403 1403 1402 1403 1403 1403 1403 1404 1403 1403 1402
1447 1449 1449 1449 1453 1454 1453 1459 1467 1469 1461 1450 1444 1445 1448 1448 1449 1450 1449 1446 1446 1446 1447 1448 1448 1448 1449 1448 1446 1443 1437 1431 1429 1430 1431 1434 1435 1434 1431 1430 1432 1432 1431 1431 1430 1429 1429 1429 1428 1428 1427 1426 1425 1424 1423 1422 1420 1418 1417 1415 1414 1412 1410 1409 1407 1405 1404 1404 1404 1404 1403 1402 1401 1400 1399 1399 1398 1397 1397 1398 1398 1399 1399 1398 1398 1398
1445 1449 1449 1448 1452 1453 1453 1460 1466 1458 1446 1444 1445 1444 1443 1444 1445 1446 1446 1443 1443 1445 1446 1446 1446 1444 1443 1441 1439 1437 1433 1430 1428 1428 1429 1430 1431 1432 1431 1429 1428 1428 1427 1427 1427 1425 1425 1425 1424 1423 1422 1422 1422 1421 1420 1418 1417 1414 1413 1412 1411 1409 1408 1406 1404 1402 1400 1399 1399 1399 1399 1398 1397 1396 1396 1395 1394 1393 1392 1393 1393 1393 1393 1392 1392 1392
1443 1446 1448 1450 1451 1452 1453 1453 1453 1451 1447 1445 1440 1435 1434 1437 1439 1443 1445 1442 1440 1441 1442 1440 1439 1437 1435 1434 1433 1433 1433 1433 1429 1425 1425 1426 1426 1428 1428 1426 1424 1425 1424 1425 1424 1423 1422 1422 1421 1420 1419 1419 1419 1418 1417 1415 1413 1411 1409 1408 1407 1406 1405 1403 1401 1400 1398 1396 1395 1394 1394 1393 1392 1391 1391 1391 1390 1389 1389 1389 1388 1388 1388 1387 1386 1387
1444 1445 1447 1450 1450 1450 1453 1452 1452 1456 1451 1437 1427 1424 1426 1432 1435 1439 1442 1441 1436 1434 1433 1431 1430 1430 1430 1430 1431 1431 1433 1435 1431 1424 1423 1425 1424 1424 1425 1423 1423 1423 1422 1422 1422 1421 1420 1420 1419 1418 1418 1417 1416 1415 1414 1412 1409 1407 1406 1405 1404 1403 1402 1400 1399 1397 1395 1394 1392 1391 1390 1388 1387 1386 1386 1385 1385 1385 1385 1385 1384 1384 1383 1382 1381 1382
1448 1446 1446 1450 1449 1448 1453 1456 1456 1455 1441 1424 1420 1424 1427 1431 1433 1436 1443 1442 1430 1422 1424 1426 1426 1427 1427 1428 1429 1430 1432 1432 1428 1423 1423 1424 1423 1423 1423 1422 1422 1421 1420 1420 1419 1419 1418 1418 1417 1416 1415 1414 1414 1412 1410 1408 1406 1404 1403 1402 1401 1400 1399 1398 1396 1395 1393 1391 1390 1388 1387 1385 1383 1382 1381 1380 1380 1379 1379 1379 1379 1379 1378 1377 1376 1376
1452 1449 1448 1452 1449 1446 1450 1453 1451 1445 1429 1415 1419 1426 1428 1429 1432 1440 1448 1438 1418 1414 1420 1423 1424 1425 1425 1426 1426 1426 1427 1426 1424 1422 1422 1423 1422 1422 1422 1421 1420 1420 1419 1418 1417 1416 1416 1415 1414 1414 1413 1412 1411 1409 1407 1405 1403 1402 1401 1400 1398 1397 1395 1394 1393 1391 1390 1388 1387 1386 1384 1383 1381 1379 1377 1376 1375 1374 1374 1373 1373 1373 1373 1373 1372 1371
1454 1450 1448 1449 1447 1446 1449 1449 1445 1437 1419 1410 1417 1424 1426 1431 1437 1441 1439 1423 1412 1416 1420 1420 1422 1423 1423 1423 1422 1422 1423 1423 1422 1423 1422 1422 1421 1421 1420 1420 1419 1418 1417 1416 1415 1414 1413 1412 1412 1411 1410 1409 1408 1407 1405 1403 1401 1400 1399 1397 1396 1394 1392 1391 1389 1388 1386 1385 1384 1383 1381 1380 1378 1376 1374 1372 1370 1369 1369 1368 1368 1367 1367 1367 1366 1366
1450 1450 1449 1448 1445 1444 1444 1445 1449 1437 1411 1403 1416 1422 1423 1431 1435 1429 1421 1414 1415 1419 1418 1418 1421 1422 1421 1421 1421 1421 1422 1422 1422 1422 1422 1421 1420 1419 1418 1417 1417 1416 1415 1414 1413 1412 1410 1409 1409 1408 1408 1407 1406 1404 1402 1401 1399 1397 1396 1395 1393 1391 1390 1388 1386 1384 1383 1382 1380 1379 1378 1376 1375 1373 1371 1369 1367 1365 1364 1363 1363 1363 1362 1361 1361 1360
1440 1445 1446 1442 1440 1442 1443 1448 1451 1434 1404 1398 1413 1419 1419 1422 1421 1415 1414 1416 1418 1418 1418 1420 1420 1420 1421 1422 1421 1422 1422 1422 1422 1421 1421 1420 1419 1417 1417 1416 1414 1414 1413 1411 1411 1409 1408 1407 1406 1405 1405 1405 1404 1402 1400 1398 1396 1395 1393 1392 1390 1389 1387 1385 1384 1382 1380 1379 1377 1376 1374 1372 1371 1369 1367 1365 1363 1361 1359 1358 1358 1357 1357 1357 1356 1355
1432 1433 1433 1431 1432 1437 1441 1438 1429 1413 1400 1401 1409 1412 1414 1415 1413 1413 1416 1417 1417 1418 1419 1420 1420 1420 1421 1421 1421 1421 1421 1420 1421 1420 1420 1419 1418 1416 1416 1414 1413 1412 1411 1409 1408 1407 1406 1405 1403 1403 1402 1402 1401 1400 1398 1396 1394 1392 1391 1390 1388 1386 1384 1383 1381 1380 1378 1376 1374 1372 1371 1369 1367 1365 1363 1361 1359 1357 1355 1354 1353 1352 1352 1352 1351 1350
1420 1418 1419 1421 1421 1423 1422 1416 1407 1402 1404 1407 1407 1408 1411 1412 1412 1414 1415 1415 1417 1418 1418 1419 1420 1421 1421 1421 1421 1420 1419 1419 1419 1418 1418 1418 1417 1415 1414 1413 1412 1410 1408 1407 1406 1405 1404 1402 1401 1400 1399 1398 1398 1398 1395 1394 1392 1390 1389 1388 1386 1384 1382 1380 1379 1377 1375 1373 1371 1369 1367 1365 1363 1361 1359 1357 1355 1353 1352 1350 1348 1347 1347 1347 1347 1346
1412 1412 1413 1414 1414 1414 1410 1406 1404 1405 1405 1406 1407 1408 1410 1411 1412 1413 1414 1415 1416 1416 1416 1418 1420 1420 1421 1421 1420 1419 1419 1419 1418 1417 1417 1417 1416 1414 1413 1411 1410 1409 1406 1405 1404 1402 1401 1400 1398 1397 1396 1395 1395 1394 1393 1391 1390 1388 1386 1385 1384 1382 1380 1378 1376 1374 1373 1371 1369 1366 1364 1361 1359 1357 1355 1354 1353 1350 1349 1347 1345 1344 1343 1342 1342 1342
1411 1412 1412 1412 1412 1412 1408 1403 1402 1404 1404 1405 1407 1407 1408 1410 1411 1412 1413 1414 1415 1416 1416 1417 1418 1420 1421 1420 1419 1419 1418 1417 1417 1416 1416 1415 1414 1413 1411 1409 1408 1406 1404 1403 1401 1400 1399 1397 1395 1395 1393 1392 1392 1391 1389 1388 1387 1386 1384 1383 1382 1380 1378 1376 1374 1372 1370 1368 1366 1364 1362 1359 1356 1354 1352 1351 1350 1348 1346 1344 1342 1340 1339 1337 1337 1337
1407 1409 1411 1410 1408 1407 1403 1401 1401 1402 1402 1404 1405 1406 1407 1409 1410 1411 1413 1414 1415 1416 1416 1417 1418 1419 1419 1418 1419 1418 1417 1416 1416 1415 1414 1413 1412 1411 1410 1408 1405 1403 1402 1400 1399 1398 1396 1394 1393 1392 1391 1390 1389 1388 1387 1386 1385 1384 1382 1380 1379 1378 1375 1373 1372 1369 1367 1365 1363 1362 1360 1357 1354 1351 1349 1347 1346 1345 1343 1341 1339 1337 1335 1333 1333 1332
1402 1405 1405 1405 1406 1405 1401 1400 1402 1403 1402 1403 1404 1405 1406 1408 1409 1411 1412 1413 1414 1415 1416 1416 1417 1418 1418 1418 1418 1417 1416 1416 1415 1414 1413 1412 1410 1409 1407 1405 1403 1401 1400 1398 1396 1395 1394 1392 1391 1390 1388 1388 1387 1386 1384 1383 1382 1381 1380 1378 1376 1374 1372 1370 1368 1366 1364 1363 1361 1359 1357 1355 1352 1350 1347 1344 1342 1341 1340 1338 1336 1334 1331 1330 1329 1328
1399 1400 1399 1401 1404 1402 1398 1397 1400 1402 1401 1402 1403 1404 1406 1408 1409 1411 1411 1411 1413 1414 1415 1416 1416 1416 1416 1416 1416 1416 1415 1414 1413 1412 1411 1409 1407 1406 1404 1402 1401 1399 1397 1396 1394 1393 1392 1391 1390 1388 1386 1385 1384 1382 1381 1379 1378 1378 1377 1375 1373 1370 1368 1366 1364 1362 1361 1359 1357 1356 1354 1352 1350 1348 1345 1342 1339 1337 1335 1334 1333 1331 1328 1326 1324 1323
1394 1395 1395 1396 1397 1395 1394 1395 1397 1398 1399 1401 1403 1405 1406 1408 1409 1410 1411 1411 1412 1413 1413 1414 1414 1414 1414 1413 1413 1413 1412 1411 1410 1409 1407 1406 1405 1403 1402 1400 1398 1396 1395 1394 1392 1390 1389 1388 1387 1385 1383 1382 1381 1379 1377 1376 1375 1374 1373 1371 1369 1367 1365 1362 1360 1358 1357 1355 1354 1352 1351 1349 1347 1345 1342 1340 1337 1334 1331 1329 1328 1327 1325 1323 1321 1319